[Iaude] MPEC F28: 2022 FM [a=1.14,e=0.23,i=6.1,H=24.4]

mpec at marsden.cfa.harvard.edu mpec at marsden.cfa.harvard.edu
Thu Mar 24 05:32:19 EDT 2022


M.P.E.C. 2022-F28                                Issued 2022 March 24, 09:30 UT

     The Minor Planet Electronic Circulars contain information on unusual
         minor planets and routine data on comets.  They are published
    on behalf of Division F of the International Astronomical Union by the
          Minor Planet Center, Smithsonian Astrophysical Observatory,
                          Cambridge, MA 02138, U.S.A.

             Prepared using the Tamkin Foundation Computer Network

                              MPC at CFA.HARVARD.EDU
            URL https://www.minorplanetcenter.net/    ISSN 1523-6714

                                    2022 FM                                     


Observations:
     K22F00M* C2022 03 22.19890509 33 34.59 +16 04 00.9          22.99GVEF028V00
     K22F00M  C2022 03 22.20377609 33 33.75 +16 04 14.6          22.61GVEF028V00
     K22F00M  C2022 03 22.20863109 33 32.85 +16 04 29.1          22.06GVEF028V00
     K22F00M  C2022 03 22.21348909 33 32.00 +16 04 43.0                VEF028V00
     K22F00M KC2022 03 22.26347 09 33 23.07 +16 07 06.5                oEF028291
     K22F00M KC2022 03 22.27803 09 33 20.53 +16 07 47.9          22.0 RoEF028291
     K22F00M KC2022 03 22.29260 09 33 17.94 +16 08 29.8          22.2 RoEF028291
     K22F00M KC2022 03 23.11076609 31 11.30 +16 47 47.5          21.64GVEF028V06
     K22F00M KC2022 03 23.11792209 31 10.05 +16 48 08.7          21.86GVEF028V06
     K22F00M KC2022 03 23.12507509 31 08.78 +16 48 29.8          21.51GVEF028V06
     K22F00M KC2022 03 23.13222809 31 07.51 +16 48 50.5          21.50GVEF028V06
     K22F00M KC2022 03 23.13231 09 31 07.58 +16 48 50.0          22.0 GVEF028291
     K22F00M KC2022 03 23.14246 09 31 05.80 +16 49 20.6          22.5 GVEF028291
     K22F00M KC2022 03 23.15263 09 31 04.00 +16 49 50.3          22.2 GVEF028291
     K22F00M KC2022 03 24.11378109 28 33.72 +17 35 56.5          22.43GVEF028V06
     K22F00M KC2022 03 24.11757909 28 33.08 +17 36 07.5          22.39GVEF028V06
     K22F00M  C2022 03 24.24270909 28 11.31 +17 42 09.1          22.29GVEF028V00
     K22F00M  C2022 03 24.24757309 28 10.46 +17 42 22.6          21.61GVEF028V00
     K22F00M  C2022 03 24.25242009 28 09.63 +17 42 36.6          21.81GVEF028V00
     K22F00M  C2022 03 24.25726809 28 08.77 +17 42 50.5          22.37GVEF028V00

Observer details:
291 LPL/Spacewatch II.  Observers T. H. Bressi, R. A. Mastaler.  1.8-m f/2.7
    reflector + CCD.
V00 Kitt Peak-Bok.  Observer H. Groeller.  Measurers M. J. Brucker, E. J.
    Christensen, C. E. Woodward, G. A. Farneth, J. B. Fazekas, D. C. Fuls, A.
    R. Gibbs, A. D. Grauer, H. Groeller, R. A. Kowalski, S. M. Larson, G. J.
    Leonard, R. S. McMillan, D. Rankin, R. L. Seaman, A. Serrano, F. C.
    Shelly, K. W. Wierzchos.  2.25-m reflector + CCD.
V06 Catalina Sky Survey-Kuiper.  Observer K. W. Wierzchos.  Measurers E. J.
    Christensen, G. A. Farneth, J. B. Fazekas, D. C. Fuls, A. R. Gibbs, A. D.
    Grauer, H. Groeller, R. A. Kowalski, S. M. Larson, G. J. Leonard, D.
    Rankin, R. L. Seaman, A. Serrano, F. C. Shelly, K. W. Wierzchos.  1.55-m
    reflector + 1K CCD.

Orbital elements:
2022 FM                                                  Earth MOID = 0.0040 AU
Epoch 2022 Jan. 21.0 TT = JDT 2459600.5                 Veres                   
M 234.82499              (2000.0)            P               Q                  
n   0.81414556     Peri.  105.05919     +0.14715729     +0.98903679             
a   1.1358858      Node   173.36638     -0.94344272     +0.14408280             
e   0.2321988      Incl.    6.10557     -0.29708681     +0.03234780             
P   1.21           H   24.45          G   0.15           U   8                  
Residuals in seconds of arc
220322 V00  0.1+  0.1+    220323 V06  0.1+  0.3-    220324 V06  0.2-  0.1+
220322 V00  0.4+  0.3-    220323 V06  0.1+  0.1-    220324 V06  0.0   0.0
220322 V00  0.1-  0.2+    220323 V06  0.3-  0.2+    220324 V00  0.0   0.2+
220322 V00  0.1+  0.2+    220323 V06  0.5-  0.0     220324 V00  0.0   0.1-
220322 291  0.5-  0.2-    220323 291  0.0   1.0-    220324 V00  0.2+  0.0
220322 291  0.0   0.3-    220323 291  0.0   0.0     220324 V00  0.1-  0.1+
220322 291  0.4-  0.0     220323 291  0.2-  0.1+

Ephemeris:
2022 FM                  a,e,i = 1.14, 0.23, 6                   q = 0.8721
Date    TT    R. A. (2000) Decl.     Delta      r    Elong.  Phase     V
2022 02 22    10 43 11.8 -02 12 47   0.2493  1.2326   166.1    11.1    22.6
...
2022 03 09    10 09 26.0 +05 57 32   0.1959  1.1817   163.3    13.9    22.1
...
2022 03 17    09 47 40.2 +11 55 54   0.1800  1.1528   149.0    26.4    22.2
...
2022 03 23    09 31 27.3 +16 42 42   0.1728  1.1304   137.7    36.4    22.4
2022 03 24    09 28 50.1 +17 30 42   0.1720  1.1266   135.9    38.0    22.4
2022 03 25    09 26 14.9 +18 18 34   0.1712  1.1229   134.0    39.7    22.4
...
2022 03 31    09 11 37.2 +23 00 21   0.1681  1.1000   123.2    49.4    22.6
...
2022 04 08    08 54 58.1 +28 53 32   0.1666  1.0692   109.8    61.7    22.9
...
2022 04 23    08 29 53.8 +38 59 09   0.1645  1.0121    87.7    83.0    23.5

M. P. C. Staff               (C) Copyright 2022 MPC           M.P.E.C. 2022-F28




More information about the Iaude mailing list